Regional Weather Roundup
Issued by NWS

Home | Current Version | Previous Version | Text Only | Print | Product List | Glossary On
Versions: 1 2 3 4 5 6 7 8 9 10 11 12 13 14 15 16 17 18 19 20 21 22 23 24 25 26 27 28 29 30 31 32 33 34 35 36 37 38 39 40 41 42 43 44 45 46 47 48 49 50
000
ASHW40 PHFO 031212
RWRHI

WEATHER ROUNDUP FOR HAWAII
NATIONAL WEATHER SERVICE HONOLULU HI
200 AM HST TUE AUG 03 2021

THIS IS AN AUTOMATED REPORT THAT HAS NOT BEEN QUALITY CONTROLLED.

NOTE..."FAIR" INDICATES FEW OR NO CLOUDS BELOW 12,000 FEET WITH NO
SIGNIFICANT WEATHER AND/OR OBSTRUCTIONS TO VISIBILITY.

* - THESE SITES REPORT LIMITED FIELDS
# - BUOY DATA PROVIDED BY PACIFIC ISLANDS OCEAN OBSERVING SYSTEM.

HIZ001-003-004-029>031-031300-
KAUAI-NIIHAU-

CITY           SKY/WX    TMP DP  RH WIND       PRES   REMARKS
LIHUE APT      MOCLDY    79  67  66 E21       30.14F
PORT ALLEN*      N/A     77 N/A N/A E20G26      N/A
POIPU*         NOT AVBL
PRINCEVILLE*     N/A     75 N/A N/A E7G16       N/A
KOKOLE POINT*  NOT AVBL
MOLOAA DAIRY*    N/A     75  66  73 E5G17       N/A
WAIMEA HTS*    NOT AVBL
PUU OPAE*      NOT AVBL
PUU LUA*       NOT AVBL
MAKAHA RIDGE*  NOT AVBL
$$

HIZ006-007-009>011-032>036-031300-
OAHU-

CITY           SKY/WX    TMP DP  RH WIND       PRES   REMARKS
HONOLULU       LGT RAIN  76  66  71 E12       30.10S
KALAELOA       LGT RAIN  78  65  63 E9        30.11S
KANEOHE MCB    MOCLDY    78  67  68 E16       30.09F
WHEELER FIELD  CLOUDY    74  63  69 E15       30.12F
BELLOWS*       NOT AVBL
KAHUKU*        NOT AVBL
WHEELER*       NOT AVBL
WAIANAE HARBOR NOT AVBL
DILLINGHAM*      N/A     73  64  73 SE1G13      N/A
KAHUKU TRN*      N/A     73  64  73 E12G26      N/A
KAWAILOA*      NOT AVBL
KII*             N/A     77  68  73 E23G31      N/A
MAKUA RANGE*     N/A     77  64  65 E6G17       N/A
OAHU FOREST NW NOT AVBL
SCHOFIELD BRK*   N/A     70  64  83 NW2         N/A
SCHOFIELD S*   NOT AVBL
WAIANAE VLY*   NOT AVBL
KUAOKALA*      NOT AVBL
HONOULIUULI*   NOT AVBL
MOKUOLOE IS*   NOT AVBL
PALEHUA*       NOT AVBL
WAIAWA PHB*    NOT AVBL
$$

HIZ037>041-031300-
MOLOKAI-

CITY           SKY/WX    TMP DP  RH WIND       PRES   REMARKS
MOLOKAI AIRPT  FAIR      75  64  68 NE17G26   30.11F
KALAUPAPA      NOT AVBL
MAKAPULAPAI*   NOT AVBL
MOLOKAI 1*     NOT AVBL
PUU ALII*      NOT AVBL
$$

HIZ015-042>044-031300-
LANAI-

CITY           SKY/WX    TMP DP  RH WIND       PRES   REMARKS
LANAI CITY     MOCLDY    70  70 100 NE10      30.14F
LANAI 1*       NOT AVBL
$$

HIZ016-031300-
KAHOOLAWE-

CITY           SKY/WX    TMP DP  RH WIND       PRES   REMARKS
KAHOOLAWE*     NOT AVBL
HAKIOAWA*      NOT AVBL
HONOKANAIA*    NOT AVBL
KANELOA*         N/A     73  66  78 E22G37    30.14F
KEALIALALO*    NOT AVBL
LUA MAKIKA*    NOT AVBL
$$

HIZ017-018-022-045>050-031300-
MAUI-

CITY           SKY/WX    TMP DP  RH WIND       PRES   REMARKS
KAHULUI        LGT RAIN  72  68  87 NE13      30.10F
KAPALUA-W MAUI NOT AVBL
HANA AIRPORT   NOT AVBL
HANA*            N/A     77 N/A N/A E7G13       N/A
HALEAKALA SUMM   N/A     52   9  17 NE12        N/A  VSB 0
MAALAEA BAY*   NOT AVBL
HALEAKALA*     NOT AVBL
KAUPO GAP*     NOT AVBL
KULA 1*          N/A     46  36  66 NE3         N/A
$$

HIZ023-026-051>054-031300-
BIG ISLAND OF HAWAII COAST AND LOWER SLOPES-

CITY           SKY/WX    TMP DP  RH WIND       PRES   REMARKS
KAILUA KONA    CLOUDY    77  66  68 CALM      30.03F
HILO           CLOUDY    75  68  78 E13       30.10F
HONOKAA*       NOT AVBL
KAWAIHAE MWT*  NOT AVBL
KAWAIHAE*        N/A     77 N/A N/A E8          N/A
SOUTH POINT*     N/A     72 N/A N/A E16G23      N/A
UPOLU AIRPORT*   N/A     77 N/A N/A E21G29      N/A
KAMUELA*       NOT AVBL
HAKALAU*         N/A     51  51  98 S1          N/A
KALOKO-HONOKO* NOT AVBL
PALI 2*          N/A     63  59  88 VRB15G22    N/A
KEALAKOMO*       N/A     73  64  73 NE14G24     N/A
KAUPULEHU*     NOT AVBL
KAPAPALA*        N/A     64  61  89 W5          N/A
LOWER KAHUKU*  NOT AVBL
PUHE CS*       NOT AVBL
PUHO CS*       NOT AVBL
PTA KEAMUKU*   NOT AVBL
WAIKOLOA*      NOT AVBL
$$

HIZ027-028-031300-
BIG ISLAND OF HAWAII INTERIOR AND SUMMMITS-

CITY           SKY/WX    TMP DP  RH WIND       PRES   REMARKS
BRADSHAW FIELD FAIR      49  46  91 SE5       30.36S
MK VISITOR CEN   N/A     54  10  17 N6          N/A
MAUNA KEA*       N/A     41  -2  16 N3          N/A
MAUNA LOA*     NOT AVBL
MAUNA LOA 1*   NOT AVBL
PTA KIPUKA*      N/A     52  50  93 SE5         N/A
PTA RANGE 17*    N/A     55  50  82 E7G15       N/A
PTA WEST*        N/A     57  52  82 SE12G18     N/A
NENE CABIN*    NOT AVBL
AHUMOA*        NOT AVBL
PTA PORTABLE*  NOT AVBL
PUU MALI*        N/A     52  39  62 W3G10       N/A
$$

HIC003-031300-
NORTHWEST ISLANDS-

CITY           SKY/WX    TMP DP  RH WIND       PRES   REMARKS
MIDWAY ISLAND  MOCLDY    81  75  83 SE9       30.15F
MIDWAY NOS*    NOT AVBL
FRENCH FRIGATE NOT AVBL
$$

PHZ110>124-180-031300-
BUOY REPORTS

STATION/POSITION TIME  TEMP    WIND        PRES    WAVE   SWELL
                       AIR SEA DIR/SP/G            HT/PER HT/DIR
                 (UTC) (F)     (DEG/KT/KT) (MB)    (FT/S) (FT/D)
BUOY 51101       1150   78 80   80/ 17/ 19 1022.0F   7/ 9   3/130
BUOY 51100       NOT AVBL
BUOY 51002       1150   79 80   90/ 16/ 19 1016.2F   8/ 8   7/ 80
BUOY 51003       1150   79     100/ 12/ 16 1017.9F   8/ 9   7/110
BUOY 51004       1150   77 78   80/ 17/ 19 1015.8F   7/ 8   3/140
WAIMEA BAY#      1157      80                N/A     5/ 6
MOKAPU POINT#    NOT AVBL
LANAI#           NOT AVBL
BARBERS PT#      1156      80                N/A     3/14   2/190
PAUWELA#         1156      78                N/A     8/ 8
HILO#            NOT AVBL
KANEOHE BAY#     1126      79                N/A     7/ 8
KANEOHE BAY 2#   NOT AVBL
HANALEI#         1126      79                N/A     8/ 8   2/ 20
KAHULUI HARBOR   1124   76 78   70/ 11/ 15 1019.5
HONOLULU HARBOR  1124   77 80   70/  4/  8 1019.6
PEARL HARBOR#    1130      80                N/A     4/14   2/160
KILO NALU        NOT AVBL
HILO HARBOR      1124   75 80  350/  2/  3 1018.3
MOKUOLOE         1136   78 80   90/ 12/ 19 1019.8F
NAWILIWILI       1124   77 87   60/ 15/ 19 1020.7
WHOTS BUOY       NOT AVBL
BUOY 51028       NOT AVBL
$$

......................KEY........................................
  SKY/WX - SKY CONDITIONS/PRESENT WEATHER
  TMP    - TEMPERATURE IN FAHRENHEIT
  DWPT   - DEWPOINT IN FAHRENHEIT
  RH     - RELATIVE HUMIDITY IN PERCENT
  WIND   - DIRECTION AND SPEED /MPH FOR ISLANDS...KTS FOR BUOYS/
  PRES   - MEAN SEA LEVEL PRESSURE IN INCHES OF HG
  VSB    - VISIBILITY IN MILES
  HX     - HEAT INDEX
  WCI    - WIND CHILL INDEX
  VRB    - VARIABLE WIND DIRECTION
  N/A    - NOT AVAILABLE



USA.gov is the U.S. government's official web portal to all federal, state and local government web resources and services.